Temp
21 21 22 24 24 25 26 25 25 26 22 20 20 21 22 15 14 15 15 14 12 11 10 8 6 5 5 4 4 4 3 3 4 4 5 5 4 4 3 2 2 1 1 1
20 20 24 24 22 24 23 23 24 25 21 19 21 21 22 20 15 15 16 15 13 12 10 8 6 5 4 4 4 4 3 3 2 2 2 2 2 3 2 2 2 1 0 -0
20 24 20 22 21 21 21 22 23 24 20 19 19 20 21 22 19 16 17 17 15 13 10 8 6 5 5 4 4 3 3 2 1 1 2 2 3 4 4 2 2 1 0 -0
21 22 21 19 20 21 21 23 22 22 19 20 20 21 25 25 22 17 16 17 15 13 11 9 7 6 5 5 3 2 2 1 1 1 2 2 2 3 2 1 1 1 0 -0
20 19 18 18 20 22 21 19 20 20 20 20 20 18 22 22 21 19 18 17 16 14 11 9 7 6 5 4 2 2 1 1 0 0 0 1 1 1 1 1 1 1 1 -0
19 18 18 20 18 19 19 18 18 18 19 18 20 20 22 21 21 23 21 18 16 14 11 9 7 6 5 3 2 1 1 1 0 0 -0 -0 0 0 0 0 0 0 -0 -0
20 19 18 17 17 16 18 19 18 18 17 18 22 20 22 25 21 21 22 17 15 13 11 9 8 6 4 2 2 1 1 0 -0 -0 -0 -1 -1 -1 -1 -1 -1 -1 -1 -1
19 19 19 17 19 19 17 19 19 19 20 22 17 18 21 20 17 14 15 17 14 13 11 9 7 5 4 3 2 2 1 0 -0 -1 -1 -1 -1 -1 -2 -1 -2 -2 -2 -2
21 21 18 17 18 19 18 17 20 19 20 19 22 20 22 12 11 10 12 13 12 11 10 8 7 5 4 3 2 1 0 -0 -1 -1 -2 -2 -2 -2 -3 -3 -3 -2 -2 -2
20 20 18 15 14 16 17 18 17 17 17 19 22 23 23 15 13 10 10 10 11 10 9 8 6 5 4 2 1 -0 -1 -1 -2 -2 -2 -2 -3 -3 -3 -3 -3 -3 -3 -3
19 19 17 13 14 17 15 16 17 18 20 20 21 23 15 16 16 11 9 9 9 8 8 7 5 4 2 1 -1 -2 -2 -2 -3 -3 -3 -3 -3 -3 -4 -4 -4 -4 -4 -4
16 16 17 19 18 15 18 18 18 18 20 19 20 20 12 10 11 12 9 8 8 8 7 5 3 1 0 -1 -1 -2 -3 -3 -3 -4 -4 -4 -4 -4 -4 -4 -5 -5 -5 -5
15 14 15 17 16 13 14 16 17 19 19 18 20 21 8 9 10 10 8 7 7 7 5 4 2 1 -0 -1 -2 -3 -4 -4 -4 -4 -4 -4 -4 -4 -5 -5 -5 -5 -6 -6
10 11 14 16 18 14 15 16 16 16 16 18 19 21 11 9 8 8 7 6 6 5 3 2 1 0 -1 -2 -3 -3 -4 -4 -5 -5 -5 -5 -5 -5 -6 -6 -6 -6 -6 -6
8 9 12 13 14 14 12 14 14 14 15 17 19 20 14 12 7 6 5 5 4 3 1 0 -0 -1 -2 -3 -4 -5 -5 -5 -6 -6 -6 -6 -6 -6 -6 -6 -6 -6 -7 -7
6 8 10 9 12 13 12 13 12 13 14 14 15 15 5 4 5 5 4 3 2 1 0 -1 -1 -1 -2 -3 -4 -5 -5 -6 -6 -6 -7 -7 -7 -7 -7 -7 -7 -7 -7 -7
6 7 9 10 13 12 10 10 11 11 12 13 12 12 3 2 2 2 1 2 1 -2 -2 -1 -1 -2 -3 -4 -5 -6 -7 -7 -7 -7 -7 -7 -7 -7 -7 -7 -7 -7 -7 -7
7 7 8 10 9 10 13 7 8 9 12 12 11 6 4 4 0 0 -1 -1 -1 -2 -1 -1 -2 -4 -5 -7 -7 -7 -8 -8 -8 -8 -8 -8 -8 -8 -8 -8 -8 -8 -8 -8
5 7 8 9 10 12 12 7 7 8 9 3 5 2 -0 -2 -2 -3 -2 -2 -2 -2 -2 -3 -4 -6 -7 -8 -8 -9 -8 -9 -9 -8 -8 -9 -9 -9 -9 -9 -9 -9 -8 -8
3 4 6 9 9 10 7 4 4 4 7 1 1 -1 -2 -2 3 -2 -3 -0 -1 -3 -4 -6 -6 -7 -7 -9 -10 -10 -10 -10 -9 -10 -10 -10 -10 -10 -10 -10 -10 -9 -9 -9
5 5 5 6 8 8 1 1 0 7 4 -1 1 -1 -1 -1 -3 -4 -3 -4 -5 -5 -6 -7 -7 -7 -9 -10 -10 -11 -11 -11 -11 -11 -11 -11 -11 -11 -11 -10 -10 -10 -9 -9
6 6 6 6 7 8 -2 1 2 -1 -2 -1 -0 -1 -3 -4 -4 -5 -5 -5 -5 -6 -7 -7 -8 -8 -10 -10 -11 -11 -12 -12 -12 -12 -11 -12 -11 -11 -10 -10 -9 -9 -8 -8
5 3 4 4 3 -0 -2 -2 -3 -1 -0 0 -1 -1 -2 -3 -3 -4 -5 -5 -6 -7 -7 -7 -8 -9 -10 -11 -11 -12 -12 -12 -12 -12 -12 -12 -12 -11 -10 -9 -9 -9 -9 -9
2 -1 3 3 -0 -1 -1 -2 -2 -0 -0 -0 -1 -1 -2 -3 -3 -4 -5 -5 -6 -7 -8 -9 -9 -9 -10 -11 -11 -12 -13 -13 -12 -13 -12 -12 -11 -9 -9 -9 -9 -9 -9 -9
-3 -2 -3 2 -1 -1 -2 -3 -3 -1 -1 -2 -1 -2 -2 -3 -4 -4 -5 -6 -7 -8 -9 -9 -10 -10 -11 -11 -11 -12 -13 -13 -13 -13 -12 -11 -10 -10 -10 -9 -9 -9 -8 -8
-6 -6 -4 -2 -4 -5 -3 -4 -4 -3 -2 -2 -3 -3 -3 -3 -4 -5 -5 -7 -7 -9 -10 -10 -11 -11 -12 -12 -12 -12 -13 -13 -13 -13 -12 -12 -10 -10 -10 -10 -10 -9 -8 -7
Height
788 790 782 771 770 764 759 762 762 755 767 781 779 771 767 787 794 793 793 800 806 812 821 828 833 838 842 845 847 849 850 851 852 853 854 855 856 856 857 856 855 854 852 851
791 787 767 762 768 766 770 772 766 757 772 782 767 762 757 762 774 778 779 786 794 805 814 823 829 834 838 842 845 848 849 851 851 852 853 855 855 856 855 855 855 854 853 851
784 763 772 770 773 776 772 770 765 764 776 778 774 763 753 743 755 767 770 773 783 792 803 815 823 828 833 838 842 845 848 849 850 852 853 854 855 855 855 855 854 853 851 850
776 762 770 776 774 770 771 757 764 765 781 775 766 752 721 721 735 753 758 761 769 782 796 809 817 823 828 833 838 843 845 847 849 850 852 853 855 855 855 854 853 852 850 849
772 771 777 777 766 762 766 770 767 768 770 770 762 774 728 723 731 732 739 747 758 772 786 800 810 818 825 830 835 839 842 845 847 849 850 852 853 853 853 852 851 850 849 848
767 772 774 764 768 768 771 773 775 775 772 773 756 757 717 722 716 709 718 735 748 764 779 794 806 814 821 828 832 836 840 843 846 848 850 850 851 851 852 851 850 848 846 844
759 761 763 770 770 775 773 771 775 777 780 758 731 740 707 693 705 706 703 722 740 757 773 787 798 808 817 824 830 834 838 842 845 847 848 848 849 850 850 849 848 847 845 842
762 759 753 757 753 755 766 758 759 759 747 729 751 737 707 702 710 722 721 722 739 754 770 783 794 805 814 821 826 831 836 840 843 845 845 846 847 848 848 847 846 845 843 840
744 741 745 752 746 750 756 761 744 752 739 747 715 712 694 722 729 734 732 731 741 753 768 781 793 803 811 817 823 829 834 838 841 842 843 845 845 846 845 844 844 842 840 837
740 739 743 756 762 756 751 747 759 757 755 738 704 692 687 712 715 732 736 738 744 756 769 782 794 803 810 817 823 829 833 835 838 840 841 842 843 843 843 842 841 838 835 832
745 742 747 763 756 739 755 751 749 738 723 720 707 684 702 702 700 720 735 742 749 760 771 784 796 805 812 819 824 828 831 834 836 838 839 841 842 841 840 838 835 833 831 829
753 748 737 723 726 739 725 724 728 730 720 718 707 682 714 723 721 720 735 746 754 764 774 787 799 808 815 820 824 827 830 832 834 837 839 840 840 838 836 833 831 828 827 825
755 751 741 721 730 742 734 723 721 712 713 707 702 672 729 728 727 727 738 748 757 767 779 791 801 809 815 819 823 826 828 831 835 837 838 837 835 833 831 829 827 826 823 821
776 762 738 717 703 724 722 717 717 718 716 682 692 664 713 723 727 734 744 752 759 770 780 794 802 808 814 818 822 825 828 831 834 835 835 833 831 830 828 827 824 822 820 817
781 761 748 727 722 721 729 722 718 717 700 703 665 677 698 710 732 740 750 757 765 775 785 794 802 807 814 817 821 825 829 831 833 832 831 829 829 827 826 824 822 819 816 812
775 755 746 737 719 717 720 718 717 713 703 703 693 692 734 742 742 749 756 763 771 779 786 794 801 806 812 816 820 824 828 830 830 830 829 828 827 826 824 822 819 815 811 807
766 761 743 723 711 715 724 701 710 704 699 700 704 697 740 748 750 755 760 765 773 783 789 792 798 805 812 816 819 823 825 827 827 827 828 827 826 823 821 818 815 811 807 803
749 749 744 720 727 714 681 710 708 700 687 689 696 716 731 734 749 754 762 767 774 782 789 797 802 807 812 818 821 823 824 824 825 827 827 826 824 821 818 815 812 808 802 798
750 744 731 725 709 690 687 717 716 704 699 727 721 733 745 754 758 767 765 770 778 785 792 798 805 810 814 818 820 822 824 824 825 826 826 825 823 821 816 812 808 804 799 793
759 754 745 723 714 695 723 734 735 725 706 740 738 746 753 754 739 765 771 773 780 788 796 803 808 811 815 818 820 820 823 824 824 824 824 822 821 818 814 809 804 800 797 791
746 748 744 735 720 713 752 749 747 712 736 753 744 751 757 756 761 769 776 782 788 795 801 807 810 812 815 817 818 821 823 823 823 821 822 819 818 816 811 806 801 797 791 786
743 738 733 732 723 716 766 752 749 771 764 758 754 757 765 770 773 777 782 787 792 798 804 810 812 814 816 817 818 821 824 823 821 820 818 816 815 811 808 804 799 794 789 783
746 759 754 753 756 770 774 772 773 768 762 759 763 766 767 772 778 783 787 791 795 801 806 811 813 815 816 818 820 821 822 821 820 817 816 813 810 807 805 801 795 792 788 781
765 776 756 756 771 772 773 775 773 766 764 766 770 772 775 777 783 788 791 796 800 805 808 813 815 816 817 818 820 821 821 822 819 816 814 811 808 807 803 798 794 789 785 779
798 789 788 763 777 774 776 780 778 773 772 773 775 777 779 782 786 791 795 799 803 806 810 813 815 817 818 819 820 820 821 819 817 815 813 811 808 804 800 798 791 787 784 780
818 815 806 790 800 800 787 789 784 781 778 779 780 782 784 786 789 793 797 801 805 809 812 814 816 817 817 818 819 820 819 819 816 814 812 810 806 802 798 796 788 784 782 777
Wind_Speed
9 9 14 19 19 20 15 17 17 12 9 13 21 21 20 16 17 19 19 19 19 19 21 21 20 18 16 13 12 9 7 6 5 4 3 3 4 5 5 7 10 10 12 13
5 16 18 13 9 18 16 18 19 11 6 12 14 21 20 19 24 24 23 22 22 20 20 24 23 21 18 15 12 10 8 6 6 5 4 3 4 3 5 7 9 9 12 13
17 12 5 10 11 14 19 20 17 18 6 13 14 18 22 23 21 22 23 22 22 23 22 21 25 23 21 17 15 12 9 7 6 5 4 3 2 4 4 9 10 12 13 13
15 18 13 10 14 16 20 17 18 17 6 10 12 9 14 21 22 23 24 24 23 24 22 21 26 26 23 20 16 13 10 8 6 5 4 4 4 6 8 9 11 13 12 12
8 6 9 15 19 14 15 4 9 13 15 17 16 8 7 7 20 24 26 26 23 22 23 22 27 27 24 21 18 14 12 9 6 4 3 3 3 5 8 10 12 13 12 12
19 1 6 14 1 7 5 4 3 5 9 11 17 15 13 11 18 21 23 24 23 23 23 24 28 27 25 21 19 15 13 9 6 4 2 2 4 7 9 10 12 12 14 14
10 21 7 7 7 6 12 10 4 6 6 10 7 15 22 9 5 8 11 22 23 22 22 21 23 27 26 24 20 16 13 10 6 3 2 3 4 7 9 10 11 14 15 15
6 7 21 16 18 10 20 17 7 8 11 13 4 9 6 5 6 6 3 15 19 21 20 20 24 27 27 24 21 16 13 10 6 3 2 2 4 6 9 10 12 14 15 16
10 11 6 6 7 9 7 12 16 17 19 9 10 12 9 6 5 6 8 13 18 20 20 20 25 27 26 24 20 17 13 9 5 2 1 2 5 7 9 12 13 14 16 17
8 16 9 6 2 9 9 4 7 7 7 16 11 15 10 8 14 11 13 15 17 18 19 18 22 25 24 21 18 14 11 8 4 1 1 4 6 8 10 12 14 15 17 18
10 12 5 3 11 16 8 9 9 5 9 8 15 12 7 7 5 16 14 13 16 16 17 16 19 21 21 19 16 13 9 6 3 1 3 6 8 9 11 12 14 15 17 19
5 5 13 19 6 4 14 16 22 9 13 9 11 18 4 5 5 10 13 12 15 16 15 15 19 20 19 18 15 11 8 5 3 1 4 7 9 10 12 13 15 16 18 20
1 7 13 18 9 2 8 15 16 21 12 21 15 13 3 5 7 10 14 15 15 17 17 16 20 20 19 16 13 10 6 4 1 2 5 7 9 11 12 14 16 18 19 22
4 14 19 17 10 3 5 11 19 19 13 27 20 30 6 9 12 12 14 15 16 16 16 14 13 17 17 14 12 9 6 3 0 3 5 8 10 12 14 15 17 19 22 24
4 13 19 28 29 24 14 13 12 22 30 19 30 21 3 7 11 12 13 16 18 18 17 15 13 16 16 14 10 7 4 1 2 4 7 9 11 12 14 16 18 21 23 24
6 9 14 25 27 22 22 23 22 18 21 21 28 25 5 7 12 13 14 16 16 16 16 15 14 17 15 13 10 7 3 0 3 6 8 9 11 13 15 17 20 21 23 24
7 5 5 15 14 17 15 31 24 25 18 13 18 12 8 7 9 11 13 14 15 15 15 15 14 16 13 11 9 6 2 2 5 6 8 9 11 14 16 18 20 21 23 23
10 11 7 11 3 8 6 3 1 12 22 20 15 2 7 5 8 7 8 10 12 15 14 12 14 16 13 10 7 4 2 4 5 6 8 10 13 15 17 19 20 21 21 23
15 10 4 5 10 9 13 2 3 2 2 6 3 7 8 11 8 6 5 8 11 14 15 15 15 15 12 9 5 4 3 4 5 7 9 12 14 17 18 19 20 21 23 24
2 1 3 3 6 5 7 7 8 3 3 10 6 5 7 8 6 4 9 13 14 20 18 17 15 13 11 7 4 3 3 4 6 8 12 13 15 17 20 19 21 22 23 26
2 2 9 11 8 2 6 10 9 5 4 10 3 5 6 2 2 16 14 15 19 18 18 15 13 11 8 5 3 3 3 4 6 9 13 14 15 17 17 20 20 22 24 25
2 2 2 3 4 5 12 4 4 6 6 5 6 8 9 13 16 17 16 15 18 18 15 12 11 8 6 4 3 2 3 5 7 11 14 14 15 15 16 19 22 22 22 22
1 4 3 3 4 3 4 3 5 7 3 5 7 9 14 16 15 15 14 13 16 15 13 9 8 7 4 3 1 2 4 6 10 13 14 15 15 13 15 18 20 21 22 21
4 10 2 3 7 9 4 4 8 7 6 8 9 11 12 15 14 14 12 11 12 12 10 7 6 4 3 1 1 2 4 7 11 13 14 14 16 15 15 16 17 18 20 24
5 10 10 1 10 8 8 13 7 6 8 10 9 10 12 13 12 12 10 10 11 10 8 5 4 2 1 0 1 2 4 8 11 12 12 13 12 15 18 17 17 20 21 22
8 7 5 3 10 8 7 12 7 3 6 8 10 10 9 11 10 12 9 11 10 8 6 4 3 2 1 1 2 3 5 8 10 11 11 11 13 14 16 18 24 20 20 25
Wind_Direction
203 230 223 229 232 256 286 280 247 249 152 204 230 240 232 193 208 217 206 204 202 198 187 182 178 174 168 165 159 149 131 105 101 86 86 66 23 15 10 7 1 357 354 351
214 238 249 274 292 243 253 260 257 255 166 218 249 244 242 202 212 210 210 206 202 193 186 184 181 179 177 169 163 155 140 118 96 84 66 53 359 350 344 349 348 348 348 346
247 258 356 237 244 237 242 247 254 253 175 238 275 266 251 238 209 213 220 211 202 197 189 184 184 182 178 175 170 162 149 128 105 92 71 35 360 340 340 338 339 341 341 338
261 267 248 238 240 230 252 243 253 266 225 254 187 280 250 220 212 213 215 212 202 196 190 186 185 184 181 177 168 162 151 140 121 99 82 44 12 343 336 331 331 330 329 327
236 245 235 245 247 234 260 308 248 243 247 262 233 265 245 261 209 221 216 210 202 192 188 186 187 185 180 171 169 163 155 147 134 113 81 37 2 341 330 326 322 324 324 320
248 248 263 238 341 244 108 161 182 236 251 248 236 225 247 201 224 230 215 208 195 187 184 184 185 180 177 171 170 165 160 153 143 127 95 32 356 336 323 319 320 322 318 316
236 232 210 205 205 196 206 191 230 230 211 252 242 220 246 258 197 249 208 188 186 182 181 179 180 177 174 174 171 166 165 158 150 137 93 17 340 316 311 316 316 313 311 312
257 255 197 200 218 195 202 207 209 246 235 265 138 240 247 289 42 109 315 170 174 179 178 178 177 175 174 173 169 166 164 155 147 131 66 353 312 304 305 304 304 303 304 305
247 244 140 218 187 212 172 223 245 281 275 267 246 242 245 174 181 182 171 169 173 175 175 176 174 176 173 171 167 164 157 148 142 115 41 306 297 300 301 302 301 299 300 303
270 281 176 153 207 239 233 289 202 214 252 252 250 258 259 230 218 188 181 180 173 168 170 169 170 173 168 164 157 151 148 143 134 116 331 307 303 297 296 298 300 303 305 306
251 241 209 153 200 201 195 217 224 282 228 257 270 267 11 23 213 191 180 176 168 166 167 162 164 160 154 151 151 146 141 133 128 52 318 299 295 298 300 302 307 311 310 310
258 280 262 247 193 260 250 235 217 226 228 239 273 268 63 53 36 152 160 160 162 162 157 152 150 146 151 154 150 145 137 126 99 296 287 293 299 306 311 315 317 316 312 308
279 241 265 245 202 183 231 224 236 238 256 255 250 253 136 120 111 129 147 154 155 156 152 153 154 158 156 151 147 140 131 127 137 291 298 302 310 318 320 320 318 314 311 308
286 250 255 251 251 355 228 229 224 223 224 246 237 251 190 170 142 143 147 152 150 152 149 150 155 154 153 150 145 141 136 131 199 298 306 316 325 326 323 318 314 312 309 305
232 254 249 260 265 269 260 268 272 224 239 242 257 257 341 137 149 143 143 150 151 151 151 152 154 152 154 146 139 132 124 114 326 318 325 330 324 323 318 316 313 309 305 303
185 261 255 256 256 255 253 253 251 256 256 252 262 273 101 97 118 142 154 156 161 161 160 158 161 158 152 142 133 128 130 59 332 335 332 329 324 320 317 313 309 308 305 304
191 233 247 257 264 254 257 238 237 240 238 240 244 249 160 150 149 164 164 169 169 164 163 162 155 148 136 131 132 130 111 357 350 339 330 324 317 313 312 311 310 308 307 308
237 228 244 271 282 233 261 63 255 239 248 231 247 257 160 116 84 115 159 164 153 152 147 147 140 131 128 127 116 103 54 11 345 331 325 320 317 313 312 312 309 308 310 309
225 245 246 247 242 285 289 40 331 252 60 24 11 137 121 121 93 48 118 124 136 144 137 130 131 127 125 120 108 74 33 2 345 330 323 320 318 313 312 310 311 313 312 308
316 300 290 241 266 254 39 10 344 282 240 10 4 150 156 165 169 131 148 130 118 114 121 126 127 125 120 112 98 71 35 357 340 327 320 316 314 312 308 310 313 314 310 306
354 235 235 247 261 283 2 349 330 248 11 346 22 120 152 17 6 130 114 108 114 123 126 126 122 119 118 114 88 53 9 342 323 318 315 314 315 310 311 312 316 313 311 310
262 274 237 229 249 264 5 342 11 318 334 343 87 111 105 113 116 121 123 125 124 121 118 119 118 113 104 89 62 33 331 322 321 320 321 318 314 320 322 319 319 317 317 317
255 359 316 11 3 12 12 40 330 316 343 81 93 107 124 125 125 125 122 120 120 121 122 121 117 110 93 78 40 315 317 323 317 325 324 324 331 331 325 324 322 322 326 326
41 19 320 300 34 352 23 30 10 15 91 92 101 116 124 122 124 122 119 119 119 123 120 118 110 107 116 65 329 297 317 311 328 331 325 333 332 331 332 333 326 326 328 323
355 323 326 27 19 338 62 358 12 41 96 104 103 112 119 123 124 126 125 123 124 123 120 117 113 130 154 324 313 314 313 326 332 330 331 331 330 332 335 330 330 331 328 326
355 2 348 324 3 318 325 339 358 33 108 103 107 109 110 123 125 126 123 127 130 127 127 130 143 144 121 314 309 313 328 327 333 331 331 328 331 335 336 333 332 339 333 332